Location: Sihaung
(22.8641°N, 94.0549°E)
Time: 09:54:54
(UTC+00:00)

CZ-4C R/B - Pass Details

Date: 03 March 2021
Orbit: 614 x 1388 km, 63.4° (Epoch: 12 April)

Event Time Altitude Azimuth Distance (km) Brightness Sun altitude
Exits shadow 21:53:35 24° 139° (SE) 1,316 3.5 -30.6°
Maximum altitude 21:54:53 28° 110° (ESE) 1,216 3.5 -30.3°
Drops below altitude 10° 21:58:59 10° 52° (NE) 2,165 5.0 -29.3°
Sets 22:01:45 0° 41° (NE) 3,191 5.8 -28.7°
